| time (UTC) | temp F | wind direction | speed MPH | gust MPH | rain 1hr in | rain 24hr in | rain mn in | humidity % | barometer mb |
| 20260507073016 | 51 | 23 | 1.0 | 4.0 | 0.00 | 0.12 | 0.00 | 41 | 1020.2 |
| 20260507070015 | 52 | 113 | 1.0 | 6.0 | 0.00 | 0.13 | 0.00 | 38 | 1019.9 |
| 20260507063015 | 52 | 90 | 2.0 | 4.0 | 0.00 | 0.14 | 0.00 | 38 | 1019.8 |
| 20260507060015 | 53 | 113 | 2.0 | 7.0 | 0.00 | 0.14 | 0.14 | 37 | 1019.7 |
| 20260507053016 | 53 | 113 | 3.0 | 7.0 | 0.00 | 0.14 | 0.14 | 37 | 1019.3 |
| 20260507050116 | 53 | 113 | 3.0 | 9.0 | 0.00 | 0.14 | 0.14 | 36 | 1019.3 |
| 20260507043056 | 53 | 113 | 3.0 | 7.0 | 0.00 | 0.14 | 0.14 | 36 | 1018.4 |
| 20260507040016 | 53 | 90 | 2.0 | 5.0 | 0.00 | 0.14 | 0.14 | 36 | 1018.1 |
| 20260507033016 | 54 | 90 | 3.0 | 7.0 | 0.00 | 0.14 | 0.14 | 36 | 1017.3 |
| 20260507030017 | 55 | 90 | 2.0 | 6.0 | 0.00 | 0.14 | 0.14 | 36 | 1017.2 |
| 20260507023016 | 58 | 0.0 | 4.0 | 0.00 | 0.14 | 0.14 | 30 | 1017.3 | |
| 20260507020016 | 60 | 315 | 3.0 | 9.0 | 0.00 | 0.14 | 0.14 | 29 | 1017.5 |
| 20260507013016 | 60 | 338 | 3.0 | 11.0 | 0.00 | 0.14 | 0.14 | 27 | 1017.8 |
| 20260507010016 | 61 | 315 | 5.0 | 14.0 | 0.00 | 0.14 | 0.14 | 29 | 1018.2 |
| 20260507003016 | 60 | 338 | 8.0 | 18.0 | 0.00 | 0.14 | 0.14 | 28 | 1018.1 |
| 20260507000016 | 60 | 315 | 8.0 | 17.0 | 0.00 | 0.14 | 0.14 | 29 | 1018.2 |
| 20260506233016 | 61 | 338 | 8.0 | 18.0 | 0.00 | 0.14 | 0.14 | 29 | 1018.1 |
| 20260506230016 | 61 | 338 | 9.0 | 21.0 | 0.00 | 0.14 | 0.14 | 29 | 1018.0 |
| 20260506223016 | 61 | 315 | 9.0 | 19.0 | 0.00 | 0.14 | 0.14 | 29 | 1018.2 |
| 20260506220016 | 61 | 338 | 8.0 | 18.0 | 0.00 | 0.14 | 0.14 | 30 | 1018.7 |
| 20260506213015 | 60 | 315 | 6.0 | 19.0 | 0.00 | 0.14 | 0.14 | 29 | 1019.1 |
| 20260506210017 | 60 | 315 | 6.0 | 17.0 | 0.00 | 0.14 | 0.14 | 27 | 1018.7 |
| 20260506203017 | 59 | 315 | 5.0 | 16.0 | 0.00 | 0.14 | 0.14 | 30 | 1018.8 |
| 20260506200017 | 58 | 315 | 6.0 | 16.0 | 0.00 | 0.14 | 0.14 | 29 | 1018.9 |
| 20260506193017 | 57 | 315 | 5.0 | 18.0 | 0.00 | 0.14 | 0.14 | 29 | 1019.2 |
| 20260506190018 | 56 | 315 | 5.0 | 15.0 | 0.00 | 0.14 | 0.14 | 34 | 1018.7 |
| 20260506183017 | 54 | 315 | 4.0 | 15.0 | 0.00 | 0.14 | 0.14 | 33 | 1018.7 |
| 20260506180017 | 54 | 315 | 4.0 | 15.0 | 0.00 | 0.14 | 0.14 | 37 | 1017.9 |
| 20260506173017 | 53 | 338 | 4.0 | 15.0 | 0.00 | 0.14 | 0.14 | 39 | 1017.8 |
| 20260506170017 | 52 | 315 | 5.0 | 16.0 | 0.00 | 0.14 | 0.14 | 43 | 1016.9 |
| 20260506163017 | 51 | 315 | 6.0 | 17.0 | 0.00 | 0.14 | 0.14 | 48 | 1016.7 |
| 20260506160017 | 48 | 315 | 6.0 | 19.0 | 0.00 | 0.14 | 0.14 | 50 | 1016.1 |
| 20260506153057 | 46 | 180 | 3.0 | 12.0 | 0.00 | 0.14 | 0.14 | 61 | 1015.7 |
| 20260506150017 | 43 | 135 | 2.0 | 5.0 | 0.00 | 0.14 | 0.14 | 84 | 1015.6 |
| 20260506143017 | 41 | 90 | 1.0 | 6.0 | 0.00 | 0.14 | 0.14 | 90 | 1015.0 |
| 20260506140016 | 40 | 135 | 1.0 | 4.0 | 0.00 | 0.14 | 0.14 | 90 | 1014.8 |
| 20260506133056 | 41 | 180 | 2.0 | 7.0 | 0.00 | 0.14 | 0.14 | 90 | 1014.4 |
| 20260506130016 | 41 | 135 | 2.0 | 4.0 | 0.00 | 0.14 | 0.14 | 89 | 1013.9 |
| 20260506123016 | 42 | 113 | 2.0 | 7.0 | 0.00 | 0.14 | 0.14 | 89 | 1013.7 |
| 20260506120016 | 43 | 158 | 2.0 | 7.0 | 0.01 | 0.14 | 0.14 | 89 | 1013.3 |
| 20260506113016 | 44 | 180 | 2.0 | 6.0 | 0.01 | 0.14 | 0.14 | 90 | 1013.6 |
| 20260506110016 | 44 | 203 | 1.0 | 4.0 | 0.00 | 0.14 | 0.13 | 89 | 1012.6 |
| 20260506103056 | 44 | 338 | 1.0 | 8.0 | 0.00 | 0.14 | 0.13 | 87 | 1011.9 |
| 20260506100016 | 45 | 0.0 | 3.0 | 0.11 | 0.14 | 0.13 | 86 | 1011.8 | |
| 20260506093016 | 46 | 338 | 5.0 | 17.0 | 0.11 | 0.14 | 0.13 | 84 | 1011.1 |
| 20260506090016 | 48 | 135 | 1.0 | 4.0 | 0.00 | 0.03 | 0.02 | 79 | 1010.8 |
| 20260506083016 | 47 | 113 | 2.0 | 6.0 | 0.00 | 0.03 | 0.02 | 80 | 1009.6 |